Batman, Turkey

4:34 AM EET on February 14, 2016 (GMT +0200)
Batman Air Base

Weather History for LTCJ - July, 2013

Change the Weather History Date:

Thursday, July 18, 2013

  Actual Average (LTCC) Record (LTCC)
Temperature  
Mean Temperature 85 °F -  
Max Temperature 102 °F 100 °F 109 °F (2000)
Min Temperature 68 °F 72 °F 65 °F (2014)
Cooling Degree Days 20    
Growing Degree Days 35 (Base 50)    
Moisture  
Dew Point 46 °F    
Average Humidity 31    
Maximum Humidity 64    
Minimum Humidity 7    
Precipitation  
Precipitation 0.00 in - - ()
Sea Level Pressure  
Sea Level Pressure 29.65 in    
Wind  
Wind Speed 6 mph ()    
Max Wind Speed 10 mph    
Max Gust Speed -    
Visibility 6.2 miles    
Events      
Averages and records for this station are not official NWS values.
T = Trace of Precipitation, MM = Missing Value Source: Averaged Metar Reports

Daily Weather History Graph

Daily Weather History Graph

Search for Another Location

Airport or City:

Trip Planner

Search our weather history database for the weather conditions in past years. The results will help you decide how hot, cold, wet, or windy it might be!

Date:

Astronomy

Jul. 18, 2013 Rise Set
Actual Time 5:07 AM EEST 7:35 PM EEST
Civil Twilight 4:37 AM EEST 8:05 PM EEST
Nautical Twilight 3:59 AM EEST 8:43 PM EEST
Astronomical Twilight 3:18 AM EEST 9:24 PM EEST
Moon 3:08 PM EEST (7/18) 12:39 AM EEST (7/18)
Length of Visible Light 15h 28m
Length of Day
14h 28m
Waxing Gibbous, 74% of the Moon is Illuminated
Jul 18
Waxing Gibbous
Jul 22
Full
Jul 29
Last Quarter
Aug 7
New
Aug 14
First Quarter

Hourly Weather History & Observations

Time (EEST) Temp. Heat Index Dew Point Humidity Pressure Visibility Wind Dir Wind Speed Gust Speed Precip Events Conditions
12:20 AM 73.4 °F - 51.8 °F 47% 29.65 in - NE 6.9 mph - N/A   Clear
12:50 AM 71.6 °F - 57.2 °F 60% 29.65 in - North 4.6 mph - N/A   Clear
1:20 AM 69.8 °F - 55.4 °F 60% 29.65 in - NNE 6.9 mph - N/A   Clear
1:50 AM 71.6 °F - 53.6 °F 53% 29.65 in - NE 9.2 mph - N/A   Clear
2:20 AM 71.6 °F - 50.0 °F 46% 29.65 in - NE 8.1 mph - N/A   Clear
3:20 AM 68.0 °F - 55.4 °F 64% 29.65 in - NNE 9.2 mph - N/A   Clear
3:50 AM 69.8 °F - 53.6 °F 56% 29.65 in - NE 10.4 mph - N/A   Clear
4:20 AM 68.0 °F - 51.8 °F 56% 29.65 in - NE 8.1 mph - N/A   Clear
4:50 AM 68.0 °F - 50.0 °F 52% 29.65 in - NE 6.9 mph - N/A   Clear
5:20 AM 68.0 °F - 51.8 °F 56% 29.65 in - NE 8.1 mph - N/A   Clear
5:50 AM 69.8 °F - 51.8 °F 53% 29.68 in - NE 6.9 mph - N/A   Clear
6:20 AM 71.6 °F - 53.6 °F 53% 29.68 in - NE 5.8 mph - N/A   Clear
6:50 AM 77.0 °F - 51.8 °F 41% 29.68 in - NNE 4.6 mph - N/A   Clear
7:20 AM 80.6 °F - 50.0 °F 34% 29.68 in - NNE 4.6 mph - N/A   Clear
7:50 AM 80.6 °F 80.8 °F 57.2 °F 45% 29.68 in - West 4.6 mph - N/A   Clear
8:20 AM 82.4 °F 81.7 °F 55.4 °F 39% 29.68 in - SW 4.6 mph - N/A   Clear
8:50 AM 84.2 °F 83.0 °F 55.4 °F 37% 29.68 in - SW 5.8 mph - N/A   Clear
9:20 AM 89.6 °F 87.3 °F 53.6 °F 29% 29.68 in - West 3.5 mph - N/A   Clear
9:50 AM 91.4 °F - 51.8 °F 26% 29.68 in - West 4.6 mph - N/A   Clear
10:20 AM 93.2 °F - 44.6 °F 19% 29.68 in - West 6.9 mph - N/A   Clear
10:50 AM 95.0 °F - 41.0 °F 15% 29.68 in - Variable 5.8 mph - N/A   Clear
11:20 AM 96.8 °F - 35.6 °F 12% 29.65 in - Variable 5.8 mph - N/A   Clear
11:50 AM 100.4 °F - 28.4 °F 8% 29.65 in - Variable 8.1 mph - N/A   Clear
12:20 PM 98.6 °F - 30.2 °F 9% 29.65 in - SE 8.1 mph - N/A   Clear
12:50 PM 98.6 °F - 24.8 °F 7% 29.65 in - ESE 9.2 mph - N/A   Clear
1:20 PM 100.4 °F - 28.4 °F 8% 29.65 in - SW 8.1 mph - N/A   Clear
1:50 PM 100.4 °F - 32.0 °F 9% 29.62 in - Variable 4.6 mph - N/A   Clear
2:20 PM 102.2 °F - 41.0 °F 12% 29.62 in - Variable 4.6 mph - N/A   Clear
2:50 PM 100.4 °F - 44.6 °F 15% 29.62 in - SSW 9.2 mph - N/A   Clear
3:20 PM 100.4 °F - 44.6 °F 15% 29.62 in - South 5.8 mph - N/A   Clear
3:50 PM 100.4 °F - 41.0 °F 13% 29.62 in - SSW 6.9 mph - N/A   Clear
4:20 PM 100.4 °F - 39.2 °F 12% 29.62 in - South 9.2 mph - N/A   Clear
4:50 PM 100.4 °F - 42.8 °F 14% 29.59 in 6.2 mi SSW 9.2 mph - N/A   Partly Cloudy
5:20 PM 100.4 °F - 41.0 °F 13% 29.59 in 6.2 mi SW 6.9 mph - N/A   Partly Cloudy
5:50 PM 96.8 °F - 48.2 °F 19% 29.59 in - SSW 8.1 mph - N/A   Clear
6:20 PM 96.8 °F - 41.0 °F 15% 29.59 in - SW 8.1 mph - N/A   Clear
6:50 PM 93.2 °F - 46.4 °F 20% 29.62 in - SW 6.9 mph - N/A   Clear
7:20 PM 87.8 °F - 51.8 °F 29% 29.62 in - SSW 5.8 mph - N/A   Clear
7:50 PM 86.0 °F - 48.2 °F 27% 29.62 in - Variable 2.3 mph - N/A   Clear
8:20 PM 84.2 °F - 48.2 °F 29% 29.65 in - WSW 4.6 mph - N/A   Clear
8:50 PM 82.4 °F - 46.4 °F 28% 29.65 in - Variable 1.2 mph - N/A   Clear
9:20 PM 80.6 °F - 44.6 °F 28% 29.65 in - Calm Calm - N/A   Clear
9:50 PM 80.6 °F - 44.6 °F 28% 29.65 in - Variable 1.2 mph - N/A   Clear
10:20 PM 82.4 °F - 44.6 °F 26% 29.65 in - WSW 3.5 mph - N/A   Clear
10:50 PM 78.8 °F - 46.4 °F 32% 29.68 in - Calm Calm - N/A   Clear
11:20 PM 77.0 °F - 46.4 °F 34% 29.68 in - Calm Calm - N/A   Clear
11:50 PM 75.2 °F - 48.2 °F 38% 29.68 in - Calm Calm - N/A   Clear